Weather History for Clinton, OK

Change the Weather History Date:

Saturday, February 2, 2013

  Actual Average (KCSM) Record (KCSM)
Temperature  
Mean Temperature 43 °F -  
Max Temperature 60 °F 48 °F 80 °F (2003)
Min Temperature 26 °F 28 °F 1 °F (2011)
Degree Days  
Heating Degree Days 22    
Moisture  
Dew Point 24 °F    
Average Humidity 53    
Maximum Humidity 80    
Minimum Humidity 20    
Precipitation  
Precipitation 0.00 in - - ()
Sea Level Pressure  
Sea Level Pressure 30.25 in    
Wind  
Wind Speed 6 mph (NNW)    
Max Wind Speed 17 mph    
Max Gust Speed 25 mph    
Visibility 10 miles    
Events      
Averages and records for this station are not official NWS values.
T = Trace of Precipitation, MM = Missing Value Source: NWS Daily Summary

Daily Weather History Graph

Daily Weather History Graph

Search for Another Location

Airport:

Trip Planner

Search our weather history database for the weather conditions in past years. The results will help you decide how hot, cold, wet, or windy it might be!

Date:

Astronomy

Feb. 02, 2013 Rise Set
Actual Time 7:34 AM CST 6:04 PM CST
Civil Twilight 7:07 AM CST 6:31 PM CST
Nautical Twilight 6:37 AM CST 7:02 PM CST
Astronomical Twilight 6:07 AM CST 7:32 PM CST
Moon No Moon Rise 11:02 AM CST (2/2)
Length of Visible Light 11h 23m
Length of Day
10h 30m
Waning Gibbous, 59% of the Moon is Illuminated
Feb 2
Waning Gibbous
Feb 3
Last Quarter
Feb 10
New
Feb 17
First Quarter
Feb 25
Full

Hourly Weather History & Observations

Time (CST) Temp. Windchill Dew Point Humidity Pressure Visibility Wind Dir Wind Speed Gust Speed Precip Events Conditions
12:15 AM 30.2 °F 23.4 °F 24.8 °F 80% 30.15 in 10.0 mi East 6.9 mph - N/A   Clear
12:35 AM 32.0 °F 25.6 °F 23.0 °F 69% 30.15 in 10.0 mi ENE 6.9 mph - N/A   Clear
12:55 AM 32.0 °F 25.6 °F 23.0 °F 69% 30.15 in 10.0 mi NE 6.9 mph - N/A   Clear
1:15 AM 28.4 °F 21.2 °F 23.0 °F 80% 30.14 in 10.0 mi NE 6.9 mph - N/A   Clear
1:35 AM 28.4 °F 23.3 °F 23.0 °F 80% 30.14 in 10.0 mi NNE 4.6 mph - N/A   Clear
1:55 AM 26.6 °F 19.1 °F 21.2 °F 80% 30.14 in 10.0 mi North 6.9 mph - N/A   Clear
2:15 AM 28.4 °F 21.2 °F 23.0 °F 80% 30.15 in 10.0 mi North 6.9 mph - N/A   Clear
2:35 AM 28.4 °F 21.2 °F 23.0 °F 80% 30.15 in 10.0 mi North 6.9 mph - N/A   Clear
2:55 AM 28.4 °F 20.4 °F 21.2 °F 74% 30.16 in 10.0 mi North 8.1 mph - N/A   Clear
3:15 AM 28.4 °F 20.4 °F 23.0 °F 80% 30.16 in 10.0 mi North 8.1 mph - N/A   Clear
3:35 AM 28.4 °F 22.2 °F 21.2 °F 74% 30.17 in 10.0 mi NNW 5.8 mph - N/A   Clear
3:55 AM 30.2 °F 23.4 °F 21.2 °F 69% 30.17 in 10.0 mi North 6.9 mph - N/A   Clear
4:15 AM 30.2 °F - 21.2 °F 69% 30.17 in 10.0 mi Calm Calm - N/A   Clear
4:35 AM 26.6 °F 22.6 °F 21.2 °F 80% 30.17 in 10.0 mi West 3.5 mph - N/A   Clear
4:55 AM 26.6 °F 21.2 °F 21.2 °F 80% 30.18 in 10.0 mi West 4.6 mph - N/A   Clear
5:15 AM 26.6 °F 20.0 °F 21.2 °F 80% 30.19 in 10.0 mi WNW 5.8 mph - N/A   Clear
5:35 AM 28.4 °F 23.3 °F 21.2 °F 74% 30.20 in 10.0 mi WNW 4.6 mph - N/A   Clear
5:55 AM 28.4 °F 23.3 °F 21.2 °F 74% 30.21 in 10.0 mi West 4.6 mph - N/A   Clear
6:15 AM 26.6 °F 20.0 °F 21.2 °F 80% 30.21 in 10.0 mi WSW 5.8 mph - N/A   Clear
6:55 AM 26.6 °F 21.2 °F 21.2 °F 80% 30.22 in 10.0 mi West 4.6 mph - N/A   Clear
7:15 AM 28.4 °F 22.2 °F 21.2 °F 74% 30.23 in 10.0 mi West 5.8 mph - N/A   Clear
7:35 AM 28.4 °F 22.2 °F 21.2 °F 74% 30.24 in 10.0 mi North 5.8 mph - N/A   Clear
7:55 AM 26.6 °F - 21.2 °F 80% 30.25 in 10.0 mi Calm Calm - N/A   Clear
8:15 AM 30.2 °F - 24.8 °F 80% 30.26 in 10.0 mi Calm Calm - N/A   Clear
8:35 AM 32.0 °F 26.4 °F 26.6 °F 80% 30.27 in 10.0 mi NNW 5.8 mph - N/A   Clear
8:55 AM 37.4 °F 30.8 °F 30.2 °F 75% 30.28 in 10.0 mi North 9.2 mph 16.1 mph N/A   Clear
9:15 AM 41.0 °F 34.7 °F 30.2 °F 65% 30.28 in 10.0 mi North 10.4 mph - N/A   Clear
9:35 AM 41.0 °F 34.7 °F 32.0 °F 70% 30.28 in 10.0 mi NNW 10.4 mph - N/A   Clear
9:55 AM 44.6 °F 40.2 °F 32.0 °F 61% 30.29 in 10.0 mi NNW 8.1 mph - N/A   Clear
10:15 AM 46.4 °F 42.9 °F 32.0 °F 57% 30.30 in 10.0 mi North 6.9 mph - N/A   Clear
10:35 AM 48.2 °F - 32.0 °F 54% 30.31 in 10.0 mi NNW 12.7 mph - N/A   Clear
10:55 AM 50.0 °F - 32.0 °F 50% 30.31 in 10.0 mi NNW 12.7 mph - N/A   Clear
11:15 AM 51.8 °F - 32.0 °F 47% 30.31 in 10.0 mi North 17.3 mph - N/A   Clear
11:35 AM 53.6 °F - 32.0 °F 44% 30.31 in 10.0 mi North 16.1 mph 21.9 mph N/A   Clear
11:55 AM 53.6 °F - 32.0 °F 44% 30.31 in 10.0 mi North 13.8 mph 20.7 mph N/A   Clear
12:15 PM 53.6 °F - 30.2 °F 41% 30.31 in 10.0 mi North 12.7 mph 18.4 mph N/A   Clear
12:35 PM 55.4 °F - 28.4 °F 36% 30.31 in 10.0 mi North 12.7 mph 18.4 mph N/A   Clear
12:55 PM 55.4 °F - 26.6 °F 33% 30.29 in 10.0 mi NNW 16.1 mph 25.3 mph N/A   Clear
1:15 PM 59.0 °F - 26.6 °F 29% 30.29 in 10.0 mi NNW 17.3 mph - N/A   Clear
1:35 PM 59.0 °F - 24.8 °F 27% 30.28 in 10.0 mi North 15.0 mph 25.3 mph N/A   Clear
1:55 PM 59.0 °F - 23.0 °F 25% 30.28 in 10.0 mi North 11.5 mph 18.4 mph N/A   Clear
2:15 PM 59.0 °F - 23.0 °F 25% 30.27 in 10.0 mi NNW 10.4 mph - N/A   Clear
2:35 PM 59.0 °F - 19.4 °F 22% 30.27 in 10.0 mi North 12.7 mph - N/A   Clear
2:55 PM 59.0 °F - 19.4 °F 22% 30.27 in 10.0 mi North 5.8 mph - N/A   Clear
3:15 PM 59.0 °F - 19.4 °F 22% 30.27 in 10.0 mi NNW 6.9 mph - N/A   Clear
3:35 PM 59.0 °F - 19.4 °F 22% 30.27 in 10.0 mi NNW 6.9 mph - N/A   Clear
4:15 PM 59.0 °F - 17.6 °F 20% 30.27 in 10.0 mi Calm Calm - N/A   Clear
4:35 PM 60.8 °F - 19.4 °F 20% 30.27 in 10.0 mi NW 5.8 mph - N/A   Clear
5:15 PM 59.0 °F - 17.6 °F 20% 30.27 in 10.0 mi NNW 6.9 mph - N/A   Clear
5:35 PM 55.4 °F - 21.2 °F 26% 30.27 in 10.0 mi WNW 5.8 mph - N/A   Clear
5:55 PM 53.6 °F - 23.0 °F 30% 30.27 in 10.0 mi NW 4.6 mph - N/A   Clear
6:15 PM 51.8 °F - 21.2 °F 30% 30.27 in 10.0 mi NW 3.5 mph - N/A   Clear
6:35 PM 50.0 °F - 21.2 °F 32% 30.28 in 10.0 mi Calm Calm - N/A   Clear
6:55 PM 51.8 °F - 19.4 °F 28% 30.28 in 10.0 mi Calm Calm - N/A   Clear
7:15 PM 51.8 °F - 17.6 °F 26% 30.29 in 10.0 mi Calm Calm - N/A   Clear
7:35 PM 50.0 °F - 19.4 °F 30% 30.29 in 10.0 mi Calm Calm - N/A   Clear
7:55 PM 50.0 °F - 19.4 °F 30% 30.29 in 10.0 mi Calm Calm - N/A   Clear
8:15 PM 50.0 °F - 19.4 °F 30% 30.29 in 10.0 mi Calm Calm - N/A   Clear
8:35 PM 50.0 °F - 19.4 °F 30% 30.30 in 10.0 mi Calm Calm - N/A   Clear
9:15 PM 42.8 °F - 23.0 °F 46% 30.30 in 10.0 mi Calm Calm - N/A   Clear
9:35 PM 41.0 °F - 23.0 °F 49% 30.31 in 10.0 mi Calm Calm - N/A   Clear
9:55 PM 39.2 °F - 24.8 °F 56% 30.31 in 10.0 mi Calm Calm - N/A   Clear
10:15 PM 39.2 °F - 24.8 °F 56% 30.31 in 10.0 mi Calm Calm - N/A   Clear
10:35 PM 37.4 °F - 24.8 °F 60% 30.31 in 10.0 mi Calm Calm - N/A   Clear
11:15 PM 37.4 °F - 23.0 °F 56% 30.31 in 10.0 mi Calm Calm - N/A   Clear
11:35 PM 37.4 °F - 23.0 °F 56% 30.31 in 10.0 mi Calm Calm - N/A   Clear
11:55 PM 35.6 °F - 23.0 °F 60% 30.31 in 10.0 mi Calm Calm - N/A   Clear